RYR49FF EDDH-EGKK

Flight info

Callsign RYR49FF
Flight time N/A
Altitude 38000
Route WSN5G/33 WSN N125 ONTAZ DCT GALSO Q63 ARREK Y4 TEBRA
Aircraft B738/M-SDE2E3FGHIRWXY/LB1

Departure

Time 2026-05-05 14:00
Airport Hamburg Helmut Schmidt Airport (EDDH)

Arrival

Time N/A
Airport London Gatwick Airport (EGKK)
Time Latitude Longitude Altitude Speed Heading
2026-05-05 13:21 53.63099 10.00007 47 ft 0 kts 140°
2026-05-05 13:51 53.63114 9.99984 44 ft 4 kts 127°
2026-05-05 13:51 53.63125 9.99949 43 ft 4 kts 96°
2026-05-05 13:51 53.63122 9.99914 43 ft 2 kts 51°
2026-05-05 13:51 53.63121 9.99912 44 ft 1 kts 51°
2026-05-05 13:52 53.63121 9.99913 48 ft 0 kts 51°
2026-05-05 13:53 53.63118 9.99907 47 ft 0 kts 232°
2026-05-05 13:54 53.63101 9.99884 47 ft 6 kts 200°
2026-05-05 13:54 53.63050 9.99908 47 ft 9 kts 156°
2026-05-05 13:55 53.62998 9.99955 47 ft 8 kts 152°
2026-05-05 13:55 53.62945 9.99992 47 ft 8 kts 175°
2026-05-05 13:55 53.62912 9.99961 47 ft 5 kts 232°
2026-05-05 13:55 53.62889 9.99890 44 ft 10 kts 243°
2026-05-05 13:56 53.62863 9.99753 44 ft 8 kts 290°
2026-05-05 13:56 53.62911 9.99706 41 ft 8 kts 334°
2026-05-05 13:56 53.62920 9.99699 43 ft 0 kts 333°
2026-05-05 13:59 53.63119 9.99528 45 ft 72 kts 333°
2026-05-05 13:59 53.63821 9.98925 48 ft 151 kts 332°
2026-05-05 14:00 53.66070 9.96916 1608 ft 188 kts 334°
2026-05-05 14:00 53.66834 9.96235 2173 ft 195 kts 335°
2026-05-05 14:00 53.68493 9.94814 2678 ft 204 kts 335°
2026-05-05 14:00 53.69768 9.93716 3023 ft 208 kts 335°
2026-05-05 14:01 53.71110 9.92585 3140 ft 229 kts 334°
2026-05-05 14:01 53.72368 9.90786 3426 ft 250 kts 301°
2026-05-05 14:01 53.72690 9.87902 4358 ft 260 kts 265°
2026-05-05 14:01 53.72076 9.85023 4481 ft 264 kts 233°
2026-05-05 14:02 53.70876 9.82764 4781 ft 257 kts 230°
2026-05-05 14:02 53.69854 9.80252 4996 ft 261 kts 244°
2026-05-05 14:02 53.69348 9.78357 4988 ft 265 kts 249°
2026-05-05 14:02 53.68709 9.75449 4998 ft 265 kts 251°
2026-05-05 14:03 53.68120 9.72505 5040 ft 264 kts 252°
2026-05-05 14:03 53.67545 9.69552 5541 ft 270 kts 252°
2026-05-05 14:03 53.66965 9.66594 6845 ft 260 kts 252°
2026-05-05 14:03 53.66387 9.63658 7925 ft 263 kts 252°
2026-05-05 14:04 53.65803 9.60705 8884 ft 269 kts 252°
2026-05-05 14:04 53.65156 9.57702 9857 ft 274 kts 244°
2026-05-05 14:04 53.64116 9.55001 10749 ft 279 kts 234°
2026-05-05 14:04 53.62950 9.52353 11628 ft 285 kts 234°
2026-05-05 14:05 53.61748 9.49632 12545 ft 289 kts 234°
2026-05-05 14:05 53.60549 9.46899 13468 ft 293 kts 235°
2026-05-05 14:05 53.59345 9.44130 14315 ft 297 kts 235°
2026-05-05 14:05 53.58121 9.41300 15202 ft 298 kts 236°
2026-05-05 14:06 53.56909 9.38488 16079 ft 300 kts 236°
2026-05-05 14:06 53.55672 9.35619 16712 ft 312 kts 236°
2026-05-05 14:06 53.54337 9.32517 16876 ft 337 kts 236°
2026-05-05 14:06 53.52919 9.29230 17078 ft 358 kts 236°
2026-05-05 14:07 53.51439 9.25811 17697 ft 366 kts 236°
2026-05-05 14:07 53.49911 9.22288 18141 ft 378 kts 236°
2026-05-05 14:07 53.48334 9.18654 18514 ft 389 kts 236°
2026-05-05 14:07 53.46715 9.14930 18945 ft 398 kts 235°
2026-05-05 14:08 53.45074 9.11158 19473 ft 402 kts 235°
2026-05-05 14:08 53.43439 9.07409 20150 ft 402 kts 235°
2026-05-05 14:08 53.41793 9.03638 21013 ft 397 kts 235°
2026-05-05 14:08 53.40169 8.99921 21925 ft 393 kts 235°
2026-05-05 14:09 53.38574 8.96272 22752 ft 390 kts 235°
2026-05-05 14:09 53.36969 8.92608 23507 ft 390 kts 235°
2026-05-05 14:09 53.35367 8.88951 24190 ft 387 kts 236°
2026-05-05 14:09 53.34069 8.85032 24952 ft 381 kts 249°
2026-05-05 14:10 53.33191 8.80911 25782 ft 375 kts 250°
2026-05-05 14:10 53.32336 8.76817 26521 ft 372 kts 250°
2026-05-05 14:10 53.31467 8.72769 27219 ft 370 kts 249°
2026-05-05 14:10 53.30580 8.68737 27936 ft 367 kts 249°
2026-05-05 14:11 53.29695 8.64752 28691 ft 363 kts 249°
2026-05-05 14:11 53.28824 8.60784 29429 ft 360 kts 249°
2026-05-05 14:11 53.27978 8.56912 30093 ft 358 kts 249°
2026-05-05 14:11 53.27122 8.53007 30707 ft 354 kts 249°
2026-05-05 14:12 53.26281 8.49166 31307 ft 351 kts 249°
2026-05-05 14:12 53.25519 8.45324 31893 ft 348 kts 251°
2026-05-05 14:12 53.24805 8.41468 32487 ft 345 kts 251°
2026-05-05 14:12 53.24102 8.37633 33076 ft 342 kts 251°
2026-05-05 14:13 53.23407 8.33872 33643 ft 339 kts 251°
2026-05-05 14:13 53.22708 8.30130 34130 ft 337 kts 251°
2026-05-05 14:13 53.22002 8.26387 34407 ft 340 kts 251°
2026-05-05 14:13 53.21289 8.22625 34641 ft 344 kts 251°
2026-05-05 14:14 53.20559 8.18785 34969 ft 344 kts 250°
2026-05-05 14:14 53.19833 8.14978 35277 ft 346 kts 250°
2026-05-05 14:14 53.19106 8.11173 35530 ft 348 kts 251°
2026-05-05 14:14 53.18373 8.07303 35825 ft 350 kts 251°
2026-05-05 14:15 53.17638 8.03405 36101 ft 352 kts 251°
2026-05-05 14:15 53.16905 7.99516 36380 ft 353 kts 251°
2026-05-05 14:15 53.16167 7.95605 36640 ft 355 kts 251°
2026-05-05 14:15 53.15421 7.91668 36901 ft 356 kts 251°
2026-05-05 14:16 53.14673 7.87724 37149 ft 359 kts 251°
2026-05-05 14:16 53.13918 7.83754 37410 ft 360 kts 251°
2026-05-05 14:16 53.13163 7.79796 37678 ft 361 kts 251°
2026-05-05 14:16 53.12395 7.75769 37889 ft 363 kts 251°
2026-05-05 14:17 53.10846 7.67688 37921 ft 370 kts 251°
2026-05-05 14:17 53.09278 7.59565 37906 ft 365 kts 251°
2026-05-05 14:18 53.07732 7.51591 37915 ft 361 kts 251°
2026-05-05 14:18 53.06188 7.43664 37918 ft 362 kts 250°
2026-05-05 14:19 53.04630 7.35691 37919 ft 363 kts 250°
2026-05-05 14:19 53.03063 7.27693 37917 ft 364 kts 250°
2026-05-05 14:20 53.01402 7.19737 37914 ft 365 kts 244°
2026-05-05 14:20 52.99198 7.12159 37912 ft 365 kts 243°
2026-05-05 14:21 52.96935 7.04578 37922 ft 366 kts 243°
2026-05-05 14:21 52.94679 6.96993 37924 ft 367 kts 243°
2026-05-05 14:22 52.92424 6.89396 37938 ft 374 kts 243°
2026-05-05 14:22 52.90096 6.81559 37940 ft 387 kts 243°
2026-05-05 14:23 52.87683 6.73455 37935 ft 399 kts 243°
2026-05-05 14:23 52.85188 6.65102 37936 ft 410 kts 243°
2026-05-05 14:24 52.82623 6.56547 37931 ft 420 kts 243°
2026-05-05 14:24 52.79986 6.47779 37923 ft 428 kts 243°
2026-05-05 14:25 52.77332 6.38986 37910 ft 430 kts 243°
2026-05-05 14:25 52.74652 6.30144 37916 ft 430 kts 243°
2026-05-05 14:26 52.71977 6.21347 37909 ft 430 kts 243°
2026-05-05 14:26 52.69277 6.12505 37910 ft 429 kts 242°
2026-05-05 14:27 52.66605 6.03783 37903 ft 428 kts 242°
2026-05-05 14:27 52.63912 5.95027 37908 ft 427 kts 242°
2026-05-05 14:28 52.61219 5.86299 37913 ft 426 kts 242°
2026-05-05 14:28 52.58543 5.77660 37913 ft 425 kts 242°
2026-05-05 14:29 52.55858 5.69023 37912 ft 425 kts 242°
2026-05-05 14:29 52.53161 5.60380 37917 ft 424 kts 242°
2026-05-05 14:30 52.50452 5.51725 37916 ft 425 kts 242°
2026-05-05 14:30 52.47757 5.43149 37920 ft 425 kts 242°
2026-05-05 14:31 52.45056 5.34582 37914 ft 426 kts 242°
2026-05-05 14:31 52.42321 5.25939 37914 ft 427 kts 242°
2026-05-05 14:32 52.39589 5.17333 37913 ft 428 kts 242°
2026-05-05 14:32 52.36839 5.08703 37913 ft 428 kts 242°
2026-05-05 14:33 52.34070 5.00044 37915 ft 429 kts 241°
2026-05-05 14:33 52.31294 4.91393 37914 ft 430 kts 241°
2026-05-05 14:34 52.28520 4.82779 37911 ft 430 kts 241°
2026-05-05 14:34 52.25723 4.74124 37917 ft 431 kts 241°
2026-05-05 14:35 52.22905 4.65437 37911 ft 431 kts 241°
2026-05-05 14:35 52.20093 4.56797 37910 ft 432 kts 241°
2026-05-05 14:36 52.17293 4.48222 37911 ft 432 kts 241°
2026-05-05 14:36 52.14466 4.39598 37919 ft 432 kts 241°
2026-05-05 14:37 52.11627 4.30966 37920 ft 432 kts 241°
2026-05-05 14:37 52.08778 4.22334 37914 ft 433 kts 240°
2026-05-05 14:38 52.05917 4.13695 37912 ft 433 kts 240°
2026-05-05 14:38 52.03071 4.05131 37920 ft 433 kts 240°
2026-05-05 14:39 52.00209 3.96550 37920 ft 433 kts 240°